OBJECT L

Satellite information

Favourite Embed

Satellite Type and Status

UNKNOWNIN ORBIT

Key statistics

Satellite OBJECT L at a glance.

Uptime

525

Days in orbit

Revolutions

≈ 15.6

Per day

Orbit

SSO

Sun Synchronous Orbit

Inclination

97.4

Latest

Satellite identification and parameters

Extended collection of information and parameters for OBJECT L.

Object identification

Identified? True

Debris? False

Object name: OBJECT L

International designator: 2023-185L

Object number (NORAD): 58472

Object ID (CCSDS): 58472

Country: TO BE DETERMINED/UNKNOWN (TBD)

Current information (Y/N): Y

RCS size: MEDIUM

Orbital parameters

Period: 92.228 minutes

Inclination: 97.3722 deg

SMA: 6761.906 km

Apoapsis: 389.081 km

Periapsis: 378.462 km

RAAN: 204.5209 deg

Eccentricy: 0.0007852

Argument of periapsis: 190.6641 deg

Mean anomaly: 169.4451 deg

Mean motion: 15.61345591 rev/day

Mean motion (dot): 0.00093636 rev/day2

B* drag term: 0.0010904 1/REarth

Two-line elements (TLE)

Creation date: May 9, 2025, 2:46 a.m.

Reference frame: TEME

Reference center: EARTH

Epoch: May 8, 2025, 10 p.m. UTC

TLE line 0: 0 OBJECT L

TLE line 1: 1 58472U 23185L 25128.91700628 .00093636 00000-0 10904-2 0 9999

TLE line 2: 2 58472 97.3722 204.5209 0007852 190.6641 169.4451 15.61345591 80210

Live tracking on map

Real-time ground track for satellite OBJECT L.

In-orbit conjunctions

There are no conjunctions computed for OBJECT L, at the moment. Check back to stay up to date, as we update our databases every day.

Go to all conjunctions

Associated space launch

Note: Name of payload is provisional. First launch of an ultimately 5 reconnaissance satellites for the South Korean Defense Acquisition Program Administration (DAPA), with 1 satellite featuring an electro-optical infrared (EO/IR) telescope. The other 4 synthetic aperture radar (SAR) satellites are to be launched at a later date. They will be launched to low Earth orbit between 600 and 700 km by 2025, enabling South Korea’s military to observe the nuclear-armed neighbor’s key military facilities every two hours with 30-50 centimeters resolution imagery, according to a 2019 report produced by the Korea Institute of S&T Evaluation and Planning. The project is lead by the Korean Agency for Defense Development (ADD) and Korea Aerospace Research Institute (KARI), with input from Korea Aerospace Industries (KAI), Hanwha Systems and Thales Alenia Space. ESA's EIRSAT-1 is also onboard as a rideshare passenger. This 2U cubesat carries three experiments, including a novel gamma ray detector to study some of the most luminous explosions in the universe.

OBJECT L was lifted into orbit during the mission ‘Falcon 9 Block 5 | 425 Project Flight 1 & rideshare’, on board a Falcon 9 space rocket.

The launch took place on Dec. 1, 2023, 6:19 p.m. from Space Launch Complex 4E.

For more information about the launch, click the button.

Launch to space Falcon 9 Block 5 | 425 Project Flight 1 & rideshare
Falcon 9 Block 5 | 425 Project Flight 1 & rideshare

Agency: N/A

Status: Launch Successful

Launch date: Dec. 1, 2023, 6:19 p.m. UTC

Rocket: Falcon 9

Launch pad: Space Launch Complex 4E

Location: Vandenberg SFB, CA, USA

...

Latest news about this satellite

News about space launch
Launch Roundup: Soyuz resupplies the ISS; SpaceX launches more Starlink satellites

This week, SpaceX continued its incredible launch cadence with two more launches of Falcon 9, a Soyuz 2.1a resupplied the International Space Station (ISS), and three missions launched consecutively out of China.


Newsletter sign-up

Weekly statistics, charts and insights to help you stay on top of the space industry.